Waarnemingen

Advertentie
Mijn weer
Bergamo/Orio al Serio, Italië (16076): temperatuur & dauwpunt: 08.12.2018 12:00:00 - 14.12.2018 12:00:00 (CET)Bergamo/Orio al Serio, Italië (16076): windsnelheid: 08.12.2018 12:00:00 - 14.12.2018 12:00:00 (CET)Bergamo/Orio al Serio, Italië (16076): windrichting: 08.12.2018 12:00:00 - 14.12.2018 12:00:00 (CET)Bergamo/Orio al Serio, Italië (16076): luchtdruk: 08.12.2018 12:00:00 - 14.12.2018 12:00:00 (CET)Bergamo/Orio al Serio, Italië (16076): zicht: 08.12.2018 12:00:00 - 14.12.2018 12:00:00 (CET)Bergamo/Orio al Serio, Italië (16076): neerslag: 08.12.2018 12:00:00 - 14.12.2018 12:00:00 (CET)
Datum & Tijd tt [°C] td [°C] ff [km/u] ff [kn] dd ppp [hPa] vv [km] rr [mm]
14.12.2018 12:00:00 4,0 -4,0 2 1 - - 10 -
14.12.2018 11:00:00 3,0 -4,0 2 1 - - 10 -
14.12.2018 10:00:00 0,8 -4,3 5 3 NNO 1016,7 10 0,0
14.12.2018 09:00:00 -1,0 -5,0 11 6 N - 10 -
14.12.2018 08:00:00 -2,0 -5,0 9 5 N - 10 -
14.12.2018 07:00:00 -2,8 -5,3 8 4 N 1015,1 10 -
14.12.2018 06:00:00 -2,0 -5,0 8 4 NNO - 10 -
14.12.2018 05:00:00 -2,0 -5,0 8 4 NNO - 10 -
14.12.2018 04:00:00 -1,6 -5,5 4 2 - 1015,3 10 0,0
14.12.2018 03:00:00 -1,0 -5,0 4 2 N - 10 -
14.12.2018 02:00:00 0,0 -4,0 5 3 NNW - 10 -
14.12.2018 01:00:00 0,0 -4,4 8 4 N 1015,7 10 -
14.12.2018 00:00:00 0,0 -4,0 2 1 - - 10 -
13.12.2018 23:00:00 1,0 -3,0 8 4 N - 10 -
13.12.2018 22:00:00 0,3 -3,1 4 2 N 1016,1 10 0,0
13.12.2018 21:00:00 1,0 -3,0 4 2 NNW - 10 -
13.12.2018 20:00:00 0,0 -3,0 4 2 N - 10 -
13.12.2018 19:00:00 2,2 -1,9 2 1 N 1015,0 10 -
13.12.2018 18:00:00 2,0 -2,0 4 2 - - 10 -
13.12.2018 17:00:00 4,0 -4,0 5 3 Z - 10 -
13.12.2018 16:00:00 4,7 -4,6 11 6 ZZW 1014,8 10 0,0
13.12.2018 15:00:00 5,0 -5,0 8 4 ZZW - 10 -
13.12.2018 14:00:00 6,0 -6,0 8 4 WZW - 10 -
13.12.2018 13:00:00 6,5 -6,1 11 6 ZZW 1014,8 10 -
13.12.2018 12:00:00 6,0 -7,0 2 1 - - 10 -
13.12.2018 11:00:00 4,0 -6,0 2 1 - - 10 -
13.12.2018 10:00:00 1,8 -4,6 4 2 O 1016,4 10 0,0
13.12.2018 09:00:00 0,0 -6,0 2 1 - - 10 -
13.12.2018 08:00:00 0,0 -7,0 9 5 N - 10 -
13.12.2018 07:00:00 0,5 -6,9 8 4 N 1015,6 10 -
13.12.2018 06:00:00 - - - - - - - -
13.12.2018 05:00:00 - - - - - - - -
13.12.2018 04:00:00 -0,3 -6,5 9 5 N 1016,3 - 0,0
13.12.2018 03:00:00 0,0 -6,0 9 5 N - 10 -
13.12.2018 02:00:00 -1,0 -7,0 8 4 N - 10 -
13.12.2018 01:00:00 -0,6 -7,0 5 3 N 1017,5 10 -
13.12.2018 00:00:00 0,0 -7,0 11 6 N - 10 -
12.12.2018 23:00:00 -1,0 -6,0 11 6 N - 10 -
12.12.2018 22:00:00 -0,6 -6,6 4 2 - 1018,2 10 0,0
12.12.2018 21:00:00 0,0 -6,0 11 6 N - 10 -
12.12.2018 20:00:00 0,0 -6,0 9 5 N - 10 -
12.12.2018 19:00:00 1,2 -5,8 11 6 N 1018,1 10 -
12.12.2018 18:00:00 2,0 -6,0 8 4 N - 10 -
12.12.2018 17:00:00 5,0 -8,0 4 2 WNW - 10 -
12.12.2018 16:00:00 6,8 -8,3 5 3 WZW 1018,3 10 0,0
12.12.2018 15:00:00 8,0 -10,0 4 2 - - 10 -
12.12.2018 14:00:00 7,0 -9,0 8 4 ZZW - 10 -
12.12.2018 13:00:00 8,1 -8,6 5 3 ZZO 1019,2 10 -
12.12.2018 12:00:00 7,0 -9,0 5 3 ZZW - 10 -
12.12.2018 11:00:00 6,0 -9,0 5 3 Z - 10 -
12.12.2018 10:00:00 3,8 -8,3 4 2 N 1020,1 10 0,0
12.12.2018 09:00:00 1,0 -8,0 5 3 N - 10 -
12.12.2018 08:00:00 0,0 -9,0 8 4 N - 10 -
12.12.2018 07:00:00 0,0 -9,4 9 5 N 1019,1 10 -
12.12.2018 06:00:00 1,0 -10,0 8 4 N - 10 -
12.12.2018 05:00:00 0,0 -9,0 8 4 N - 10 -
12.12.2018 04:00:00 0,0 -8,8 8 4 N 1019,2 10 0,0
12.12.2018 03:00:00 0,0 -8,0 9 5 NNO - 10 -
12.12.2018 02:00:00 -1,0 -8,0 8 4 NNO - 10 -
12.12.2018 01:00:00 0,1 -7,5 9 5 N 1019,6 10 -
12.12.2018 00:00:00 2,0 -8,0 8 4 N - 10 -
11.12.2018 23:00:00 2,0 -7,0 5 3 NNO - 10 -
11.12.2018 22:00:00 1,3 -6,9 13 7 N 1019,3 10 0,0
11.12.2018 21:00:00 1,0 -6,0 9 5 N - 10 -
11.12.2018 20:00:00 2,0 -5,0 11 6 N - 10 -
11.12.2018 19:00:00 2,9 -4,5 9 5 N 1018,8 10 -
11.12.2018 18:00:00 5,0 -2,0 5 3 ONO - 10 -
11.12.2018 17:00:00 7,0 -3,0 2 1 - - 10 -
11.12.2018 16:00:00 9,5 -3,3 8 4 Z 1017,8 10 0,0
11.12.2018 15:00:00 11,0 -9,0 9 5 Z - 10 -
11.12.2018 14:00:00 11,0 -9,0 11 6 ZZO - 10 -
11.12.2018 13:00:00 11,1 -10,6 9 5 ZO 1018,0 10 -
11.12.2018 12:00:00 11,0 -7,0 5 3 ZO - 10 -
11.12.2018 11:00:00 10,0 -5,0 5 3 ZO - 10 -
11.12.2018 10:00:00 7,5 -3,4 4 2 - 1018,7 10 0,0
11.12.2018 09:00:00 5,0 -6,0 8 4 N - 10 -
11.12.2018 08:00:00 3,0 -5,0 8 4 NNW - 10 -
11.12.2018 07:00:00 6,4 -6,6 9 5 NNW 1017,7 10 -
11.12.2018 06:00:00 5,0 -6,0 11 6 NW - 10 -
11.12.2018 05:00:00 5,0 -5,0 8 4 WNW - 10 -
11.12.2018 04:00:00 5,3 -5,4 8 4 NW 1017,4 10 0,0
11.12.2018 03:00:00 6,0 -5,0 9 5 NW - 10 -
11.12.2018 02:00:00 6,0 -5,0 15 8 W - 10 -
11.12.2018 01:00:00 6,8 -5,2 11 6 WNW 1017,5 10 -
11.12.2018 00:00:00 6,0 -6,0 4 2 - - 10 -
10.12.2018 23:00:00 8,0 -6,0 11 6 NNW - 10 -
10.12.2018 22:00:00 9,1 -5,9 15 8 WNW 1017,4 10 0,0
10.12.2018 21:00:00 8,0 -5,0 15 8 WNW - 10 -
10.12.2018 20:00:00 9,0 -7,0 13 7 N - 10 -
10.12.2018 19:00:00 7,6 -6,5 8 4 WNW 1017,4 10 -
10.12.2018 18:00:00 10,0 -7,0 11 6 NW - 10 -
10.12.2018 17:00:00 11,0 -8,0 11 6 NW - 10 -
10.12.2018 16:00:00 12,7 -8,1 16 9 NW 1016,7 10 0,0
10.12.2018 15:00:00 14,0 -6,0 21 11 NW - 10 -
10.12.2018 14:00:00 14,0 -6,0 26 14 WNW - 10 -
10.12.2018 13:00:00 13,9 -5,4 26 14 WNW 1015,8 10 -
10.12.2018 12:00:00 13,0 -5,0 26 14 WNW - 10 -
10.12.2018 11:00:00 13,0 -5,0 29 16 NW - 10 -
10.12.2018 10:00:00 12,3 -5,8 26 14 NW 1015,0 10 0,0
10.12.2018 09:00:00 11,0 -6,0 16 9 NW - 10 -
10.12.2018 08:00:00 10,0 -6,0 15 8 WNW - 10 -
10.12.2018 07:00:00 6,7 -2,5 5 3 NNW 1013,1 10 -
10.12.2018 06:00:00 2,0 -1,0 8 4 - - 10 -
10.12.2018 05:00:00 4,0 -1,0 8 4 NNW - 10 -
10.12.2018 04:00:00 3,5 -0,3 9 5 NNO 1012,2 10 0,0
10.12.2018 03:00:00 9,0 2,0 13 7 WNW - 10 -
10.12.2018 02:00:00 7,0 2,0 11 6 WNW - 10 -
10.12.2018 01:00:00 7,6 1,5 11 6 W 1011,9 10 -
10.12.2018 00:00:00 8,0 2,0 18 10 W - 10 -
09.12.2018 23:00:00 3,0 0,0 5 3 - - 10 -
09.12.2018 22:00:00 7,4 -0,4 5 3 ZW 1010,4 10 0,0
09.12.2018 21:00:00 8,0 0,0 11 6 WNW - 10 -
09.12.2018 20:00:00 9,0 1,0 18 10 WZW - 10 -
09.12.2018 19:00:00 8,4 1,1 9 5 WNW 1008,5 10 -
09.12.2018 18:00:00 7,0 4,0 5 3 NNW - 10 -
09.12.2018 17:00:00 8,0 5,0 4 2 - - 8 -
09.12.2018 16:00:00 11,3 4,1 4 2 - 1007,5 10 0,0
09.12.2018 15:00:00 11,0 4,0 8 4 Z - 10 -
09.12.2018 14:00:00 10,0 4,0 4 2 - - 8 -
09.12.2018 13:00:00 10,5 1,7 9 5 WZW 1007,3 10 -
09.12.2018 12:00:00 9,0 2,0 11 6 ZW - 10 -
09.12.2018 11:00:00 8,0 0,0 9 5 W - 10 -
09.12.2018 10:00:00 6,3 -0,4 5 3 N 1007,4 10 0,0
09.12.2018 09:00:00 3,0 -1,0 8 4 N - 10 -
09.12.2018 08:00:00 1,0 -2,0 2 1 - - 10 -
09.12.2018 07:00:00 0,8 -1,9 5 3 N 1007,9 10 -
09.12.2018 06:00:00 1,0 -3,0 4 2 - - 10 -
09.12.2018 05:00:00 1,0 -2,0 5 3 NNO - 10 -
09.12.2018 04:00:00 2,0 -1,9 11 6 N 1011,0 10 0,0
09.12.2018 03:00:00 2,0 -3,0 4 2 - - 10 -
09.12.2018 02:00:00 2,0 -2,0 11 6 NNO - 10 -
09.12.2018 01:00:00 2,6 -1,3 5 3 NNO 1013,6 10 -
09.12.2018 00:00:00 4,0 -1,0 9 5 N - 10 -
08.12.2018 23:00:00 5,0 -2,0 8 4 N - 10 -
08.12.2018 22:00:00 4,6 -1,2 9 5 N 1014,3 10 0,0
08.12.2018 21:00:00 5,0 -1,0 5 3 NNW - 10 -
08.12.2018 20:00:00 6,0 0,0 5 3 N - 10 -
08.12.2018 19:00:00 8,3 -1,7 9 5 W 1014,5 10 -
08.12.2018 18:00:00 9,0 -2,0 16 9 WZW - 10 -
08.12.2018 17:00:00 11,0 -1,0 21 11 W - 10 -
08.12.2018 16:00:00 13,4 -5,0 22 12 W 1013,6 10 0,0
08.12.2018 15:00:00 15,0 -5,0 24 13 W - 10 -
08.12.2018 14:00:00 15,0 -5,0 28 15 W - 10 -
08.12.2018 13:00:00 14,8 -3,7 18 10 W 1013,0 10 -
08.12.2018 12:00:00 14,0 -2,0 21 11 W - 10 -

tt = temperatuur
td = dauwpunt
ff = windsnelheid
dd = windrichting
ppp = luchtdruk
vv = zicht
rr = neerslag

Weerstations in de omgeving